SCP
0 0 0 0 0 -0 -0 -0 -0 -0 -0 0 0 0 0 0 0 0 0 0 0 0 0 -0 -0 -0 0
0 0 0 0 0 -0 -0 -0 -0 -0 -0 0 0 0 0 0 0 0 0 0 0 0 -0 -0 0 0 0
0 0 0 0 0 0 0 -0 -0 0 0 0 0 0 0 0 0 0 0 0 0 0 0 -0 -0 0 0
0 0 0 0 0 0 0 0 -0 0 0 0 0 0 0 0 0 0 0 0 0 0 0 -0 0 0 0
0 0 0 0 0 0 0 0 -0 0 0 0 0 0 0 0 0 0 -0 0 0 0 0 0 0 0 0
0 0 0 0 0 0 0 0 -0 0 0 0 0 0 0 0 0 -0 -0 0 0 0 0 0 0 0 0
0 0 0 0 0 0 0 0 -0 -0 0 0 0 0 0 0 0 -0 -0 -0 0 -0 0 0 0 0 0
0 0 0 0 0 0 0 0 -0 -0 0 0 0 0 0 0 0 0 -0 -0 -0 0 -0 -0 0 0 0
0 0 0 0 0 0 0 0 0 0 0 0 0 0 0 0 0 0 -0 -0 -0 0 -0 -0 -0 0 0
0 0 0 0 0 0 0 0 0 0 0 0 0 0 0 0 0 0 0 0 0 0 0 0 0 0 0
0 0 0 0 0 0 0 0 0 0 0 0 0 0 0 0 0 0 0 0 0 0 0 0 0 0 0
0 0 0 0 0 0 0 0 0 0 0 0 0 0 0 0 0 0 0 0 0 0 0 0 0 0 0
0 0 0 0 0 0 0 0 0 0 0 0 0 0 0 0 0 0 0 0 0 0 0 0 0 -0 -0
0 0 0 0 0 0 0 0 0 0 0 0 0 0 0 0 0 0 0 0 0 0 0 0 0 0 -0
0 0 0 0 0 0 0 0 0 0 0 0 0 0 0 0 0 0 0 0 0 0 0 0 0 0 0
0 0 0 0 0 0 0 0 0 0 0 0 0 0 0 0 0 0 0 0 0 0 0 0 0 0 0
Wind_Speed_500mb
22 18 14 12 9 7 6 5 3 4 9 15 16 15 16 15 19 21 24 25 28 31 26 28 28 29 26
24 20 16 13 9 7 7 6 4 7 13 15 16 15 15 20 19 24 26 29 31 33 28 33 34 37 34
25 22 19 16 12 9 9 9 5 9 11 12 15 14 19 18 23 25 30 30 31 36 35 33 35 36 39
27 25 22 19 15 12 11 10 9 8 9 11 14 15 19 18 22 28 32 31 33 36 33 31 35 37 44
29 29 26 22 18 15 14 12 11 9 9 12 13 15 17 18 25 30 31 33 35 36 37 34 36 32 41
35 33 29 24 21 18 16 15 12 11 10 12 13 13 15 19 26 30 31 34 36 39 44 42 38 38 32
37 36 34 29 24 21 19 17 14 13 12 13 14 14 16 22 30 32 32 33 38 40 49 48 46 51 48
41 35 35 32 29 26 22 19 18 16 15 15 16 14 18 25 32 33 34 35 40 42 46 48 48 46 45
46 37 36 34 33 30 26 23 21 19 18 17 17 16 20 30 35 34 35 35 42 44 45 45 44 45 44
51 46 39 39 35 33 30 28 25 23 22 20 19 18 22 33 37 35 36 40 43 44 46 45 44 45 52
54 51 44 41 40 36 34 32 29 27 25 23 23 20 24 35 40 38 38 39 44 43 47 45 46 44 47
59 57 50 46 45 43 39 36 34 31 30 28 28 23 26 36 42 43 40 43 48 51 44 46 45 44 41
72 70 64 61 57 52 46 41 38 35 33 32 31 29 29 35 43 46 47 47 51 52 52 45 43 37 42
80 77 72 66 61 54 49 47 43 40 38 36 36 35 34 37 45 50 51 54 52 46 50 49 43 44 36
90 79 76 65 62 61 60 56 52 46 43 41 42 40 39 35 44 50 51 51 47 49 42 40 24 31 60
98 89 83 82 80 76 71 63 56 52 50 46 47 46 44 41 41 45 43 49 47 42 48 21 32 59 46
Wind_Direction_500mb
180 182 176 172 171 157 120 90 62 74 82 64 61 58 66 50 61 59 66 59 56 67 68 60 50 46 36
182 185 181 179 182 167 132 110 101 106 87 72 66 57 61 60 62 61 69 66 72 75 67 70 59 59 54
189 193 188 185 193 177 152 148 137 115 88 77 69 61 52 63 60 69 75 82 81 79 75 71 70 58 57
200 200 198 191 197 179 165 161 156 137 100 90 82 66 54 58 73 82 86 89 87 84 76 67 62 66 74
213 206 205 196 198 188 178 172 169 154 122 106 88 75 67 81 89 91 95 93 91 88 81 75 76 60 72
217 212 211 203 201 198 191 181 178 162 146 122 104 87 86 101 104 102 104 99 96 91 90 90 86 81 72
213 208 211 206 201 203 200 191 181 172 159 138 116 102 100 115 115 108 110 106 102 100 100 97 92 91 88
215 209 209 208 204 203 202 196 189 177 166 149 130 116 116 127 123 117 115 113 110 109 106 103 102 96 92
215 214 212 213 209 205 202 200 196 182 171 160 140 132 126 134 131 125 121 120 118 113 107 106 103 99 93
210 216 214 215 213 206 204 202 198 186 179 168 153 143 136 141 140 133 127 127 120 117 112 107 107 99 92
217 211 216 215 215 209 207 204 201 191 184 175 162 154 146 146 145 138 132 129 119 113 108 107 103 105 97
222 211 215 217 214 212 209 206 204 196 189 179 171 167 156 154 152 145 139 132 118 112 114 105 101 98 109
214 210 209 217 211 211 208 206 204 199 194 185 176 172 159 158 156 153 141 130 124 119 119 109 94 96 100
224 215 214 211 213 213 210 207 204 202 197 191 183 176 166 161 162 160 147 138 133 133 124 112 104 101 103
226 220 216 212 218 213 210 209 204 202 199 195 187 184 176 166 161 161 154 146 143 138 138 130 117 124 108
226 224 219 214 212 213 212 208 206 202 199 198 192 189 183 174 168 164 164 158 157 152 148 147 143 137 125
Wind_Speed_850mb
22 18 14 12 9 7 6 5 3 4 9 15 16 15 16 15 19 21 24 25 28 31 26 28 28 29 26
24 20 16 13 9 7 7 6 4 7 13 15 16 15 15 20 19 24 26 29 31 33 28 33 34 37 34
25 22 19 16 12 9 9 9 5 9 11 12 15 14 19 18 23 25 30 30 31 36 35 33 35 36 39
27 25 22 19 15 12 11 10 9 8 9 11 14 15 19 18 22 28 32 31 33 36 33 31 35 37 44
29 29 26 22 18 15 14 12 11 9 9 12 13 15 17 18 25 30 31 33 35 36 37 34 36 32 41
35 33 29 24 21 18 16 15 12 11 10 12 13 13 15 19 26 30 31 34 36 39 44 42 38 38 32
37 36 34 29 24 21 19 17 14 13 12 13 14 14 16 22 30 32 32 33 38 40 49 48 46 51 48
41 35 35 32 29 26 22 19 18 16 15 15 16 14 18 25 32 33 34 35 40 42 46 48 48 46 45
46 37 36 34 33 30 26 23 21 19 18 17 17 16 20 30 35 34 35 35 42 44 45 45 44 45 44
51 46 39 39 35 33 30 28 25 23 22 20 19 18 22 33 37 35 36 40 43 44 46 45 44 45 52
54 51 44 41 40 36 34 32 29 27 25 23 23 20 24 35 40 38 38 39 44 43 47 45 46 44 47
59 57 50 46 45 43 39 36 34 31 30 28 28 23 26 36 42 43 40 43 48 51 44 46 45 44 41
72 70 64 61 57 52 46 41 38 35 33 32 31 29 29 35 43 46 47 47 51 52 52 45 43 37 42
80 77 72 66 61 54 49 47 43 40 38 36 36 35 34 37 45 50 51 54 52 46 50 49 43 44 36
90 79 76 65 62 61 60 56 52 46 43 41 42 40 39 35 44 50 51 51 47 49 42 40 24 31 60
98 89 83 82 80 76 71 63 56 52 50 46 47 46 44 41 41 45 43 49 47 42 48 21 32 59 46
Wind_Direction_850mb
180 182 176 172 171 157 120 90 62 74 82 64 61 58 66 50 61 59 66 59 56 67 68 60 50 46 36
182 185 181 179 182 167 132 110 101 106 87 72 66 57 61 60 62 61 69 66 72 75 67 70 59 59 54
189 193 188 185 193 177 152 148 137 115 88 77 69 61 52 63 60 69 75 82 81 79 75 71 70 58 57
200 200 198 191 197 179 165 161 156 137 100 90 82 66 54 58 73 82 86 89 87 84 76 67 62 66 74
213 206 205 196 198 188 178 172 169 154 122 106 88 75 67 81 89 91 95 93 91 88 81 75 76 60 72
217 212 211 203 201 198 191 181 178 162 146 122 104 87 86 101 104 102 104 99 96 91 90 90 86 81 72
213 208 211 206 201 203 200 191 181 172 159 138 116 102 100 115 115 108 110 106 102 100 100 97 92 91 88
215 209 209 208 204 203 202 196 189 177 166 149 130 116 116 127 123 117 115 113 110 109 106 103 102 96 92
215 214 212 213 209 205 202 200 196 182 171 160 140 132 126 134 131 125 121 120 118 113 107 106 103 99 93
210 216 214 215 213 206 204 202 198 186 179 168 153 143 136 141 140 133 127 127 120 117 112 107 107 99 92
217 211 216 215 215 209 207 204 201 191 184 175 162 154 146 146 145 138 132 129 119 113 108 107 103 105 97
222 211 215 217 214 212 209 206 204 196 189 179 171 167 156 154 152 145 139 132 118 112 114 105 101 98 109
214 210 209 217 211 211 208 206 204 199 194 185 176 172 159 158 156 153 141 130 124 119 119 109 94 96 100
224 215 214 211 213 213 210 207 204 202 197 191 183 176 166 161 162 160 147 138 133 133 124 112 104 101 103
226 220 216 212 218 213 210 209 204 202 199 195 187 184 176 166 161 161 154 146 143 138 138 130 117 124 108
226 224 219 214 212 213 212 208 206 202 199 198 192 189 183 174 168 164 164 158 157 152 148 147 143 137 125